+ View the NASA Portal
+ Center for Near-Earth Object Studies
IMPORTANT:
The SSD Announcement email list is now available. Major changes are coming in the near future, including possible hostname and/or URL changes. To be notified of such changes, subscribe to this email list.
Please visit
this page
for more details.
Don't show this message again
JPL Small-Body Database Browser
Search:
[
help
]
437463 (2013 YD28)
Classification:
Main-belt Asteroid
SPK-ID:
2437463
[
Ephemeris
|
Orbit Diagram
|
Orbital Elements
|
Mission Design
|
Physical Parameters
|
Discovery Circumstances
]
[ show orbit diagram ]
Orbital Elements at Epoch 2458600.5 (2019-Apr-27.0) TDB
Reference:
JPL 18
(heliocentric ecliptic J2000)
Element
Value
Uncertainty (1-sigma)
Units
e
.1064078976573583
5.4043e-08
a
2.771740167572224
4.6351e-08
au
q
2.476805123488409
1.5381e-07
au
i
10.59150929997246
6.268e-06
deg
node
107.3625118460329
4.1271e-05
deg
peri
30.53643216824041
5.7199e-05
deg
M
31.33875484441261
3.7456e-05
deg
t
p
2458453.774216755177
(2018-Dec-01.27421676)
0.00017546
TDB
period
1685.493958849927
4.61
4.2279e-05
1.158e-07
d
yr
n
.2135872383936878
5.3577e-09
deg/d
Q
3.066675211656039
5.1283e-08
au
Orbit Determination Parameters
# obs. used (total)
135
data-arc span
3803 days (10.41 yr)
first obs. used
2008-11-03
last obs. used
2019-04-03
planetary ephem.
DE431
SB-pert. ephem.
SB431-N16
condition code
0
norm. resid. RMS
.54703
source
ORB
producer
Otto Matic
solution date
2019-Jul-14 15:46:24
Additional Information
Earth MOID
= 1.4977 au
Jupiter MOID
= 2.00377 au
T_jup
= 3.304
[ show covariance matrix ]
[
Ephemeris
|
Orbit Diagram
|
Orbital Elements
|
Mission Design
|
Physical Parameters
|
Discovery Circumstances
]
Physical Parameter Table
Parameter
Symbol
Value
Units
Sigma
Reference
Notes
absolute magnitude
H
16.7
n/a
MPO437697
437463 (2013 YD28)
Discovered 2008-Nov-03 by Mt. Lemmon Survey at Mount Lemmon
Reference:
Last Updated:
2015-06-04
[
Ephemeris
|
Orbit Diagram
|
Orbital Elements
|
Mission Design
|
Physical Parameters
|
Discovery Circumstances
]
2019-Dec-12 06:15 UT
(server date/time)
Site Manager:
Ryan S. Park
Webmaster
:
Alan B. Chamberlin